Location: Smoky Mountain Stargaze
(35.4252°N, 83.3329°W)
Time: 23:18:41
(UTC-04:00)

Amateur Radio Satellites - All Passes

Search period start: 24 May 2016 22:48
Search period end: 25 May 2016 22:48
Location: Smoky Mountain Stargaze, 35.4252°N, 83.3329°W

Satellite Date Start Highest point End Downlink Frequencies (MHz)
Time Altitude Azimuth
UWE-3 24 May 22:49:13 22:52:41 23° 264° (W) 22:56:07 435.000/436.395/437.385
AIST 1 24 May 22:51:21 22:55:37 50° 279° (W) 22:59:55
Cosmos 2499 24 May 22:51:50 22:57:57 32° 86° (E) 23:04:23 435.465 / 435.565
HUMSAT D 24 May 22:59:00 23:03:03 66° 76° (ENE) 23:07:06 437.325/437.525
FUNcube-1 24 May 23:02:37 23:06:09 25° 263° (W) 23:09:40 145.935
ISS 24 May 23:13:09 23:16:24 74° 319° (NW) 23:19:39 145.825
UNISAT 6 24 May 23:15:43 23:19:21 27° 97° (E) 23:23:02 437.425
PRISM 24 May 23:17:27 23:19:03 12° 295° (WNW) 23:20:38 437.425
ESTCUBE 1 24 May 23:23:10 23:26:38 22° 69° (ENE) 23:30:08 437.505/2401.250
TIGRISAT 24 May 23:24:16 23:28:05 31° 97° (E) 23:31:57 435.000
PHONESAT 2.4 24 May 23:25:52 23:28:38 29° 149° (SSE) 23:31:24 2401.200-2431.200
UKube-1 24 May 23:27:13 23:28:06 11° 64° (ENE) 23:29:00 .
DANDE 24 May 23:39:48 23:46:56 30° 70° (ENE) 23:53:35 436.750
BEESAT 2 24 May 23:42:19 23:45:25 22° 249° (WSW) 23:48:30 435.950
AIST 2 24 May 23:46:43 23:49:57 21° 52° (NE) 23:53:10 435.215
50 SAT 24 May 23:54:32 23:57:47 32° 73° (ENE) 00:01:04 437.505
ANTELSAT 24 May 23:56:31 00:00:50 84° 102° (ESE) 00:05:11 437.575/2403.000
VELOX 1 24 May 23:58:21 00:02:27 37° 72° (ENE) 00:06:33 145.980
CUBEBUG 1 25 May 00:00:02 00:04:08 39° 72° (ENE) 00:08:16 437.445
NANOSAT C BR1 25 May 00:02:27 00:04:37 14° 93° (E) 00:06:46 145.865
DX 1 25 May 00:04:18 00:08:18 36° 72° (ENE) 00:12:21 434.975-435.025
RS-15 25 May 00:07:40 00:13:36 14° 8° (N) 00:19:36 29.354- 29.394
CUSAT 1 25 May 00:16:00 00:23:54 88° 261° (W) 00:30:25 437.405
SO-50 25 May 00:31:39 00:33:04 11° 106° (ESE) 00:34:29 436.795
GONETS M04 25 May 00:32:19 00:39:57 32° 287° (WNW) 00:47:37
AISAT 25 May 00:33:34 00:38:02 81° 257° (WSW) 00:42:33 437.250
DUCHIFAT 1 25 May 00:41:08 00:45:03 38° 99° (E) 00:48:56 145.980
SPROUT 25 May 00:41:52 00:45:55 42° 74° (ENE) 00:49:59 437.525
Cosmos 2499 25 May 00:44:13 00:50:48 39° 284° (WNW) 00:57:47 435.465 / 435.565
JAS-2 25 May 00:51:27 00:54:15 12° 86° (E) 00:56:58 435.910
ISS 25 May 00:52:11 00:53:20 11° 336° (NNW) 00:54:29 145.825
UNISAT 6 25 May 00:52:38 00:55:55 22° 290° (WNW) 00:59:14 437.425
UKube-1 25 May 00:59:19 01:03:35 61° 258° (WSW) 01:07:53 .
ESTCUBE 1 25 May 00:59:21 01:03:15 29° 263° (W) 01:07:12 437.505/2401.250
TIGRISAT 25 May 01:01:35 01:04:33 19° 291° (WNW) 01:07:32 435.000
PHONESAT 2.4 25 May 01:02:12 01:05:17 53° 343° (NNW) 01:08:22 2401.200-2431.200
BUGSAT 1 25 May 01:12:51 01:16:40 40° 99° (E) 01:20:26 437.445
POPSAT HIP 1 25 May 01:15:20 01:19:31 70° 284° (WNW) 01:23:40 437.405
QB50P1 25 May 01:16:04 01:20:14 67° 285° (WNW) 01:24:23 145.935-145.965
QB50P2 25 May 01:17:13 01:21:23 61° 285° (WNW) 01:25:31 145.880/145.840
TISAT 1 25 May 01:18:19 01:22:00 29° 71° (ENE) 01:25:39 437.305
POLYITAN 1 25 May 01:19:40 01:23:48 59° 285° (WNW) 01:27:55 437.675
DANDE 25 May 01:21:58 01:30:12 58° 268° (W) 01:37:39 436.750
AIST 2 25 May 01:24:48 01:28:25 30° 247° (WSW) 01:32:02 435.215
50 SAT 25 May 01:30:13 01:31:37 12° 267° (W) 01:33:01 437.505
VELOX 1 25 May 01:36:06 01:38:59 17° 266° (W) 01:41:54 145.980
NANOSAT C BR1 25 May 01:36:35 01:40:29 39° 287° (WNW) 01:44:22 145.865
CUBEBUG 1 25 May 01:37:50 01:40:33 16° 267° (W) 01:43:15 437.445
DX 1 25 May 01:41:47 01:44:35 17° 266° (W) 01:47:24 434.975-435.025
CUSAT 1 25 May 02:01:11 02:04:31 14° 282° (WNW) 02:07:40 437.405
SWISSCUBE 25 May 02:06:09 02:09:43 22° 68° (ENE) 02:13:18 437.505
SO-50 25 May 02:08:02 02:12:55 72° 301° (WNW) 02:17:50 436.795
Oscar 19 25 May 02:08:21 02:12:26 23° 95° (E) 02:16:28 437.125/150
ITUPSAT 1 25 May 02:10:36 02:14:08 21° 68° (ENE) 02:17:42 437.325
DUCHIFAT 1 25 May 02:18:04 02:20:22 15° 293° (WNW) 02:22:42 145.980
SPROUT 25 May 02:19:53 02:22:02 14° 267° (W) 02:24:12 437.525
RS-15 25 May 02:21:01 02:31:48 34° 42° (NE) 02:42:31 29.354- 29.394
JAS-2 25 May 02:32:47 02:40:22 87° 104° (ESE) 02:47:05 435.910
BEESAT 25 May 02:35:17 02:39:40 39° 72° (ENE) 02:44:05 436.000
PHONESAT 2.4 25 May 02:39:33 02:42:23 30° 360° (N) 02:45:12 2401.200-2431.200
BUGSAT 1 25 May 02:49:45 02:51:39 13° 293° (WNW) 02:53:32 437.445
TISAT 1 25 May 02:54:35 02:57:38 19° 265° (W) 03:00:41 437.305
YUBILEINY 25 May 03:00:50 03:06:00 17° 66° (ENE) 03:11:10 435.215
SWISSCUBE 25 May 03:42:59 03:47:16 33° 262° (W) 03:51:35 437.505
Gurwin Techsat 1B 25 May 03:44:34 03:49:55 86° 105° (ESE) 03:55:14 435.225
Oscar 19 25 May 03:47:07 03:51:46 35° 290° (WNW) 03:56:23 437.125/150
ITUPSAT 1 25 May 03:47:25 03:51:44 34° 262° (W) 03:56:04 437.325
Cosmos 2491 25 May 03:51:28 03:57:19 20° 81° (E) 04:03:09 435.465 / 435.565
SO-50 25 May 03:53:47 03:54:14 10° 318° (NW) 03:54:41 436.795
AO-7 25 May 03:55:00 04:00:27 19° 94° (E) 04:05:52 29.400- 29.500
Cosmos 2504 25 May 04:06:13 04:07:26 10° 63° (ENE) 04:08:38 435.465 / 435.565
MOZHAYETS 4 25 May 04:13:52 04:18:00 36° 72° (ENE) 04:22:10
BEESAT 25 May 04:14:22 04:17:33 18° 266° (W) 04:20:47 436.000
PHONESAT 2.4 25 May 04:16:24 04:19:28 52° 16° (NNE) 04:22:31 2401.200-2431.200
JAS-2 25 May 04:19:51 04:24:11 17° 302° (WNW) 04:28:21 435.910
KKS-1 25 May 04:20:19 04:24:44 63° 75° (ENE) 04:29:09 437.445
ITAMSAT 1 25 May 04:21:24 04:26:38 75° 104° (ESE) 04:31:50 435.822/435.867
RS-15 25 May 04:33:13 04:45:33 78° 245° (WSW) 04:57:43 29.354- 29.394
YUBILEINY 25 May 04:55:06 05:03:54 88° 265° (W) 05:12:42 435.215
STARS 25 May 05:04:17 05:08:42 82° 255° (WSW) 05:13:09 437.465
Gurwin Techsat 1B 25 May 05:27:59 05:29:04 11° 299° (WNW) 05:30:10 435.225
CUBESAT XI-V 25 May 05:31:14 05:35:07 27° 70° (ENE) 05:39:02 437.345
HORYU 2 25 May 05:41:30 05:45:19 28° 97° (E) 05:49:06 437.375
ISS 25 May 05:43:29 05:46:26 30° 35° (NE) 05:49:22 145.825
Cosmos 2491 25 May 05:44:19 05:53:08 74° 278° (W) 06:02:00 435.465 / 435.565
AO-7 25 May 05:45:31 05:53:53 79° 290° (WNW) 06:02:15 29.400- 29.500
MOZHAYETS 4 25 May 05:52:10 05:55:15 18° 266° (W) 05:58:21
PHONESAT 2.4 25 May 05:53:21 05:56:08 29° 211° (SSW) 05:58:52 2401.200-2431.200
Cosmos 2504 25 May 05:53:53 06:02:16 66° 81° (E) 06:11:02 435.465 / 435.565
AO-85 25 May 05:57:16 05:58:40 11° 105° (ESE) 06:00:05 145.980
ITAMSAT 1 25 May 06:03:24 06:05:25 12° 298° (WNW) 06:07:25 435.822/435.867
BRITE-PL 25 May 06:26:38 06:27:26 10° 88° (E) 06:28:14 437.365/2234.400
Cubesat XI-IV 25 May 06:30:38 06:31:42 11° 91° (E) 06:32:48 437.490
NOAA 15 25 May 06:34:14 06:37:57 19° 94° (E) 06:41:38 137.62
LilacSat-2 25 May 06:48:15 06:49:34 11° 93° (E) 06:50:53 437.200
RS-15 25 May 06:49:40 06:55:57 16° 263° (W) 07:02:15 29.354- 29.394
YUBILEINY 25 May 06:55:14 06:59:20 14° 282° (WNW) 07:03:28 435.215
GOMX 1 25 May 07:05:44 07:07:02 11° 89° (E) 07:08:20 467.674
CUBESAT XI-V 25 May 07:08:33 07:12:24 25° 265° (W) 07:16:17 437.345
JUGNU 25 May 07:14:28 07:15:07 10° 165° (SSE) 07:15:45 437.505
CUTE-I 25 May 07:14:38 07:19:25 33° 97° (E) 07:24:12 437.470
STRAND 1 25 May 07:15:55 07:20:14 29° 69° (ENE) 07:24:34 437.568
HORYU 2 25 May 07:18:16 07:21:42 22° 291° (WNW) 07:25:07 437.375
ISS 25 May 07:20:13 07:22:44 21° 230° (SW) 07:25:14 145.825
AO-85 25 May 07:33:01 07:38:28 86° 299° (WNW) 07:43:54 145.980
AO-7 25 May 07:40:50 07:45:20 16° 307° (NW) 07:49:53 29.400- 29.500
NOAA 18 25 May 07:41:39 07:47:08 74° 103° (ESE) 07:52:37 137.9125
Cosmos 2491 25 May 07:48:22 07:51:31 12° 297° (WNW) 07:54:43 435.465 / 435.565
Cosmos 2504 25 May 07:48:43 07:54:56 23° 277° (W) 08:01:23 435.465 / 435.565
BRITE-PL 25 May 08:01:23 08:06:32 69° 285° (WNW) 08:11:14 437.365/2234.400
Cubesat XI-IV 25 May 08:06:54 08:12:16 77° 284° (WNW) 08:17:37 437.490
DOVE 4 25 May 08:07:04 08:10:38 24° 95° (E) 08:14:04 437.250
NOAA 15 25 May 08:12:51 08:17:53 45° 289° (WNW) 08:22:53 137.62
HO-68 25 May 08:18:37 08:22:45 16° 92° (E) 08:26:52 435.675
LilacSat-2 25 May 08:20:31 08:24:00 37° 286° (WNW) 08:27:30 437.200
PRISM 25 May 08:27:03 08:30:20 24° 70° (ENE) 08:33:40 437.425
CUTE 1.7 + AOD 2 25 May 08:37:36 08:39:52 14° 93° (E) 08:42:07 437.475
GOMX 1 25 May 08:40:57 08:45:35 55° 286° (WNW) 08:49:53 467.674
GONETS M04 25 May 08:49:56 08:55:53 20° 68° (ENE) 09:01:46
CUTE-I 25 May 08:54:51 08:59:18 27° 292° (WNW) 09:03:45 437.470
STRAND 1 25 May 08:54:57 08:59:18 28° 263° (W) 09:03:41 437.568
CINEMA 3 25 May 08:58:23 09:01:51 25° 96° (E) 09:05:16 145.822/145.860
JUGNU 25 May 08:59:44 09:03:21 16° 174° (S) 09:06:58 437.505
AIST 1 25 May 09:01:52 09:05:36 27° 77° (ENE) 09:09:17
AUBIESAT-1 25 May 09:08:41 09:11:36 28° 103° (ESE) 09:14:29 437.475
COMPASS 1 25 May 09:09:21 09:12:02 16° 94° (E) 09:14:43 437.405
M-CUBED/EXP-1 PRIME 25 May 09:12:41 09:15:48 41° 104° (ESE) 09:18:54 437.505
AAUSAT CUBESAT 2 25 May 09:14:55 09:17:21 15° 93° (E) 09:19:47 437.432
AO-85 25 May 09:16:58 09:19:42 14° 316° (NW) 09:22:24 145.980
NOAA 18 25 May 09:24:34 09:27:07 13° 298° (WNW) 09:29:40 137.9125
CANX-2 25 May 09:43:48 09:48:05 77° 285° (WNW) 09:52:22 2200.000
DOVE 4 25 May 09:44:46 09:48:14 23° 291° (WNW) 09:51:35 437.250
SEEDS 25 May 09:52:10 09:56:26 82° 101° (ESE) 10:00:42 437.485
PRISM 25 May 10:02:15 10:05:32 23° 264° (W) 10:08:52 437.425
HO-68 25 May 10:03:53 10:11:03 78° 287° (WNW) 10:18:13 435.675
Oscar 11 25 May 10:04:55 10:08:23 23° 95° (E) 10:11:50 145.826/435.025
CUBEBUG 2 25 May 10:06:15 10:10:17 47° 100° (E) 10:14:20 437.445
DELFI C3 25 May 10:10:08 10:10:19 10° 92° (E) 10:10:30 145.870
CUTE 1.7 + AOD 2 25 May 10:11:50 10:15:51 40° 286° (WNW) 10:19:51 437.475
UNISAT 6 25 May 10:12:28 10:15:21 17° 68° (ENE) 10:18:13 437.425
ZACube-1 25 May 10:13:30 10:16:57 25° 96° (E) 10:20:26 437.345
TIGRISAT 25 May 10:20:37 10:23:50 20° 69° (ENE) 10:27:00 435.000
CINEMA 3 25 May 10:35:43 10:38:51 21° 291° (WNW) 10:41:56 145.822/145.860
Cosmos 2499 25 May 10:36:45 10:45:16 62° 80° (E) 10:54:01 435.465 / 435.565
AIST 1 25 May 10:39:51 10:42:58 20° 272° (W) 10:46:04
UWE-3 25 May 10:40:37 10:44:48 86° 105° (ESE) 10:49:01 435.000/436.395/437.385
SO-50 25 May 10:42:46 10:47:14 43° 56° (NE) 10:51:32 436.795
COMPASS 1 25 May 10:43:51 10:47:39 33° 287° (WNW) 10:51:27 437.405
AUBIESAT-1 25 May 10:44:33 10:45:51 12° 297° (WNW) 10:47:09 437.475
GONETS M04 25 May 10:44:52 10:53:33 76° 266° (W) 11:02:12
HUMSAT D 25 May 10:47:00 10:49:00 13° 93° (E) 10:51:00 437.325/437.525
JUGNU 25 May 10:47:59 10:51:39 17° 185° (S) 10:55:17 437.505
SRMSAT 25 May 10:48:08 10:51:27 15° 172° (S) 10:54:47 437.500
PCSat 25 May 10:48:27 10:53:46 61° 113° (ESE) 10:59:07 145.827
AAUSAT CUBESAT 2 25 May 10:49:05 10:52:56 36° 287° (WNW) 10:56:47 437.432
ANTELSAT 25 May 10:52:14 10:56:29 49° 74° (ENE) 11:00:40 437.575/2403.000
FUNcube-1 25 May 10:52:32 10:56:43 71° 102° (ESE) 11:00:57 145.935
O/OREOS (USA 219) 25 May 11:04:01 11:08:33 66° 291° (WNW) 11:13:06 437.305
DUCHIFAT 1 25 May 11:30:41 11:33:46 20° 69° (ENE) 11:36:51 145.980
CUSAT 1 25 May 11:35:06 11:38:20 15° 79° (ENE) 11:41:53 437.405
Oscar 11 25 May 11:40:50 11:44:26 26° 289° (WNW) 11:48:00 145.826/435.025
DELFI C3 25 May 11:41:31 11:45:25 49° 285° (WNW) 11:49:18 145.870
CUBEBUG 2 25 May 11:44:55 11:46:29 12° 294° (WNW) 11:48:02 437.445
UNISAT 6 25 May 11:47:44 11:51:47 35° 262° (W) 11:55:47 437.425
ZACube-1 25 May 11:49:52 11:53:07 22° 290° (WNW) 11:56:23 437.345
HO-68 25 May 11:54:39 11:57:37 13° 304° (NW) 12:00:34 435.675
TIGRISAT 25 May 11:56:26 12:00:19 30° 263° (W) 12:04:09 435.000
BUGSAT 1 25 May 12:00:06 12:03:12 20° 69° (ENE) 12:06:18 437.445
POPSAT HIP 1 25 May 12:04:27 12:08:36 56° 75° (ENE) 12:12:46 437.405
QB50P1 25 May 12:05:06 12:09:16 58° 75° (ENE) 12:13:27 145.935-145.965
QB50P2 25 May 12:06:24 12:10:36 64° 75° (ENE) 12:14:49 145.880/145.840
POLYITAN 1 25 May 12:08:50 12:13:03 66° 76° (ENE) 12:17:15 437.675
HUMSAT D 25 May 12:20:52 12:24:46 40° 286° (WNW) 12:28:42 437.325/437.525
SO-50 25 May 12:24:20 12:27:18 17° 252° (WSW) 12:30:13 436.795
NANOSAT C BR1 25 May 12:25:01 12:29:15 83° 257° (WSW) 12:33:30 145.865
AISAT 25 May 12:27:29 12:31:03 24° 96° (E) 12:34:35 437.250
Cosmos 2499 25 May 12:31:03 12:37:45 26° 276° (W) 12:44:35 435.465 / 435.565
ANTELSAT 25 May 12:31:45 12:33:24 12° 267° (W) 12:35:03 437.575/2403.000
BEESAT 3 25 May 12:32:56 12:36:43 49° 115° (ESE) 12:40:32 437.485
PCSat 25 May 12:33:54 12:37:34 18° 310° (NW) 12:41:15 145.827
SRMSAT 25 May 12:36:10 12:39:53 17° 183° (S) 12:43:35 437.500
JUGNU 25 May 12:38:41 12:39:52 11° 195° (SSW) 12:41:03 437.505
JAS-2 25 May 12:40:35 12:46:44 31° 64° (ENE) 12:53:18 435.910
DANDE 25 May 12:45:24 12:49:24 25° 84° (E) 12:54:22 436.750
GONETS M04 25 May 12:46:39 12:48:46 11° 284° (WNW) 12:50:54
UKube-1 25 May 12:49:52 12:53:32 26° 97° (E) 12:57:10 .
ESTCUBE 1 25 May 12:54:05 12:58:39 73° 101° (E) 13:03:10 437.505/2401.250
50 SAT 25 May 12:59:56 13:03:39 68° 101° (ESE) 13:07:22 437.505
DUCHIFAT 1 25 May 13:05:37 13:09:16 28° 263° (W) 13:12:55 145.980
CUSAT 1 25 May 13:13:22 13:19:07 76° 280° (W) 13:26:27 437.405
Oscar 19 25 May 13:22:13 13:26:28 26° 68° (ENE) 13:30:43 437.125/150
Gurwin Techsat 1B 25 May 13:27:01 13:28:39 11° 62° (ENE) 13:30:16 435.225
VELOX 1 25 May 13:27:25 13:31:51 70° 284° (WNW) 13:36:12 145.980
CUBEBUG 1 25 May 13:27:30 13:31:52 66° 284° (WNW) 13:36:09 437.445
BEESAT 2 25 May 13:30:27 13:34:21 60° 300° (WNW) 13:38:18 435.950
DX 1 25 May 13:31:07 13:35:29 76° 283° (WNW) 13:39:48 434.975-435.025
BUGSAT 1 25 May 13:34:44 13:38:22 28° 263° (W) 13:42:01 437.445
AISAT 25 May 14:03:48 14:07:27 26° 290° (WNW) 14:11:04 437.250
SPROUT 25 May 14:06:26 14:10:39 62° 285° (WNW) 14:14:50 437.525
BEESAT 3 25 May 14:12:43 14:14:41 13° 312° (NW) 14:16:39 437.485
JAS-2 25 May 14:24:31 14:31:18 49° 262° (W) 14:38:45 435.910
SRMSAT 25 May 14:26:03 14:28:16 12° 193° (SSW) 14:30:30 437.500
UKube-1 25 May 14:26:03 14:29:25 22° 291° (WNW) 14:32:44 .
DANDE 25 May 14:27:14 14:31:50 36° 289° (WNW) 14:37:47 436.750
TISAT 1 25 May 14:40:06 14:44:17 81° 100° (E) 14:48:26 437.305
BEESAT 25 May 14:40:13 14:42:17 13° 92° (E) 14:44:22 436.000
AO-7 25 May 14:51:17 14:57:10 22° 56° (ENE) 15:03:03 29.400- 29.500
CUSAT 1 25 May 15:00:55 15:02:51 11° 302° (WNW) 15:04:52 437.405
Oscar 19 25 May 15:00:58 15:05:36 33° 263° (W) 15:10:16 437.125/150
Gurwin Techsat 1B 25 May 15:02:32 15:07:50 81° 257° (WSW) 15:13:11 435.225
AIST 2 25 May 15:18:41 15:22:47 70° 300° (WNW) 15:26:55 435.215
ITAMSAT 1 25 May 15:36:16 15:41:26 83° 75° (ENE) 15:46:37 435.822/435.867
SWISSCUBE 25 May 15:45:32 15:50:21 77° 103° (ESE) 15:55:09 437.505
ITUPSAT 1 25 May 15:50:18 15:55:07 76° 101° (E) 15:59:55 437.325
YUBILEINY 25 May 15:58:39 16:04:37 21° 81° (E) 16:10:34 435.215
Cosmos 2491 25 May 15:58:48 16:07:13 49° 78° (ENE) 16:15:32 435.465 / 435.565
AO-85 25 May 16:08:54 16:13:07 34° 53° (NE) 16:16:58 145.980
MOZHAYETS 4 25 May 16:14:26 16:15:27 11° 91° (E) 16:16:27
BEESAT 25 May 16:15:40 16:20:22 56° 286° (WNW) 16:25:01 436.000
KKS-1 25 May 16:15:45 16:18:19 15° 94° (E) 16:20:51 437.445
HORYU 2 25 May 16:37:17 16:40:20 19° 68° (ENE) 16:43:25 437.375
AO-7 25 May 16:40:45 16:49:02 77° 254° (WSW) 16:57:23 29.400- 29.500
RS-15 25 May 16:44:27 16:51:59 21° 99° (E) 16:59:44 29.354- 29.394
STARS 25 May 16:57:27 17:00:52 22° 96° (E) 17:04:15 437.465
SWISSCUBE 25 May 17:27:04 17:27:27 10° 298° (WNW) 17:27:49 437.505
NOAA 18 25 May 17:28:26 17:30:32 12° 61° (ENE) 17:32:38 137.9125
ITUPSAT 1 25 May 17:31:34 17:32:16 10° 298° (WNW) 17:32:58 437.325
BRITE-PL 25 May 17:33:17 17:35:22 12° 62° (ENE) 17:37:27 437.365/2234.400
MOZHAYETS 4 25 May 17:48:23 17:52:57 61° 285° (WNW) 17:57:31
Cubesat XI-IV 25 May 17:48:52 17:51:42 15° 63° (ENE) 17:54:32 437.490
AO-85 25 May 17:50:03 17:53:14 19° 252° (WSW) 17:56:14 145.980
KKS-1 25 May 17:50:52 17:55:01 40° 288° (WNW) 17:59:09 437.445
NOAA 15 25 May 17:51:16 17:55:24 24° 67° (ENE) 17:59:33 137.62
YUBILEINY 25 May 17:51:50 18:00:28 70° 278° (W) 18:09:09 435.215
Cosmos 2491 25 May 17:56:16 18:03:37 32° 275° (W) 18:10:58 435.465 / 435.565
GOMX 1 25 May 18:10:03 18:12:22 13° 64° (ENE) 18:14:41 467.674
HORYU 2 25 May 18:12:38 18:16:38 34° 262° (W) 18:20:39 437.375
Cosmos 2504 25 May 18:29:12 18:36:09 57° 91° (E) 18:43:23 435.465 / 435.565
CUTE-I 25 May 18:33:27 18:38:22 40° 71° (ENE) 18:43:17 437.470
STARS 25 May 18:33:29 18:37:09 27° 290° (WNW) 18:40:48 437.465
AO-7 25 May 18:40:20 18:42:53 12° 270° (W) 18:45:26 29.400- 29.500
RS-15 25 May 18:51:27 19:02:43 86° 299° (WNW) 19:14:42 29.354- 29.394
LilacSat-2 25 May 18:58:57 19:02:42 62° 77° (ENE) 19:06:29 437.200
NOAA 18 25 May 19:04:59 19:10:27 80° 256° (WSW) 19:15:56 137.9125
CUBESAT XI-V 25 May 19:07:07 19:11:51 82° 285° (WNW) 19:16:33 437.345
BRITE-PL 25 May 19:07:23 19:12:57 87° 258° (WSW) 19:18:42 437.365/2234.400
DOVE 4 25 May 19:08:52 19:12:55 23° 69° (ENE) 19:16:52 437.250
Cubesat XI-IV 25 May 19:25:56 19:31:11 63° 258° (WSW) 19:36:27 437.490
NOAA 15 25 May 19:30:01 19:34:55 38° 262° (W) 19:39:51 137.62
STRAND 1 25 May 19:31:15 19:33:08 12° 92° (E) 19:35:01 437.568
PCSat 25 May 19:39:50 19:44:23 26° 54° (NE) 19:48:52 145.827
O/OREOS (USA 219) 25 May 19:39:57 19:41:47 12° 57° (ENE) 19:43:37 437.305
GOMX 1 25 May 19:44:14 19:49:43 79° 258° (WSW) 19:55:12 467.674
AUBIESAT-1 25 May 19:51:39 19:55:15 27° 68° (ENE) 19:58:38 437.475
M-CUBED/EXP-1 PRIME 25 May 19:55:48 19:59:49 39° 69° (ENE) 20:03:36 437.505
YUBILEINY 25 May 19:57:00 19:58:56 11° 298° (WNW) 20:00:52 435.215
CINEMA 3 25 May 19:57:09 20:00:34 20° 69° (ENE) 20:03:54 145.822/145.860
CUTE-I 25 May 20:14:30 20:18:29 22° 265° (W) 20:22:31 437.470
Cosmos 2504 25 May 20:24:39 20:29:59 22° 290° (WNW) 20:35:31 435.465 / 435.565
HO-68 25 May 20:28:41 20:35:39 58° 70° (ENE) 20:42:37 435.675
CANX-2 25 May 20:33:22 20:37:24 48° 74° (ENE) 20:41:27 2200.000
SEEDS 25 May 20:40:56 20:44:44 36° 73° (ENE) 20:48:34 437.485
DOVE 4 25 May 20:45:24 20:50:19 39° 262° (W) 20:55:08 437.250
BEESAT 3 25 May 20:54:26 20:56:18 13° 48° (NE) 20:58:09 437.485
Oscar 11 25 May 20:58:18 21:00:11 13° 66° (ENE) 21:02:04 145.826/435.025
CUTE 1.7 + AOD 2 25 May 21:00:53 21:05:04 88° 256° (WSW) 21:09:18 437.475
CUBEBUG 2 25 May 21:01:32 21:05:19 28° 72° (ENE) 21:09:01 437.445
STRAND 1 25 May 21:07:36 21:12:42 67° 286° (WNW) 21:17:48 437.568
ZACube-1 25 May 21:07:41 21:09:56 14° 68° (ENE) 21:12:10 437.345
RS-15 25 May 21:07:54 21:17:09 27° 324° (NW) 21:26:49 29.354- 29.394
O/OREOS (USA 219) 25 May 21:17:10 21:21:34 57° 252° (WSW) 21:25:55 437.305
PCSat 25 May 21:22:51 21:27:50 38° 250° (WSW) 21:32:47 145.827
AUBIESAT-1 25 May 21:26:27 21:29:39 21° 258° (WSW) 21:32:44 437.475
AIST 1 25 May 21:28:29 21:31:36 19° 88° (E) 21:34:44
COMPASS 1 25 May 21:30:52 21:34:59 77° 259° (W) 21:39:09 437.405
M-CUBED/EXP-1 PRIME 25 May 21:31:50 21:34:23 15° 260° (W) 21:36:51 437.505
CINEMA 3 25 May 21:32:58 21:37:26 37° 262° (W) 21:41:45 145.822/145.860
UWE-3 25 May 21:34:27 21:38:36 45° 74° (ENE) 21:42:41 435.000/436.395/437.385
AAUSAT CUBESAT 2 25 May 21:35:38 21:39:44 86° 253° (WSW) 21:43:54 437.432
FUNcube-1 25 May 21:45:09 21:49:03 36° 73° (ENE) 21:52:53 145.935
PRISM 25 May 21:45:49 21:49:57 58° 101° (E) 21:54:01 437.425
GONETS M04 25 May 21:47:26 21:54:11 25° 83° (E) 22:00:54
BEESAT 2 25 May 21:51:34 21:55:04 28° 55° (NE) 21:58:31 435.950
CANX-2 25 May 22:12:15 22:13:30 11° 268° (W) 22:14:45 2200.000
CUSAT 1 25 May 22:13:28 22:16:01 12° 59° (ENE) 22:18:28 437.405
SEEDS 25 May 22:18:09 22:20:32 15° 267° (W) 22:22:56 437.485
HO-68 25 May 22:18:17 22:23:40 23° 265° (W) 22:29:06 435.675
ISS 25 May 22:20:34 22:23:42 48° 134° (SE) 22:26:52 145.825
DELFI C3 25 May 22:24:05 22:27:57 58° 76° (ENE) 22:31:51 145.870
PHONESAT 2.4 25 May 22:24:51 22:26:47 15° 144° (SE) 22:28:43 2401.200-2431.200
BEESAT 3 25 May 22:30:27 22:34:17 52° 244° (WSW) 22:38:06 437.485
Oscar 11 25 May 22:31:43 22:35:51 48° 260° (W) 22:40:02 145.826/435.025
CUBEBUG 2 25 May 22:38:31 22:41:54 21° 264° (W) 22:45:14 437.445
